| time (UTC) | temp C | wind direction | speed KPH | gust KPH | rain 1hr cm | rain 24hr cm | rain mn cm | humidity % | barometer mb |
| 20260507030523 | 15 | 330 | 4.8 | 14.5 | 0.00 | 0.00 | 0.00 | 22 | 1021.1 |
| 20260507030047 | 15 | 342 | 6.4 | 14.5 | 0.00 | 0.00 | 0.00 | 22 | 1021.1 |
| 20260507025521 | 15 | 325 | 6.4 | 14.5 | 0.00 | 0.00 | 0.00 | 22 | 1020.9 |
| 20260507025021 | 15 | 359 | 3.2 | 12.9 | 0.00 | 0.00 | 0.00 | 22 | 1020.9 |
| 20260507024544 | 15 | 33 | 4.8 | 12.9 | 0.00 | 0.00 | 0.00 | 22 | 1020.7 |
| 20260507024025 | 16 | 1 | 4.8 | 12.9 | 0.00 | 0.00 | 0.00 | 22 | 1020.7 |
| 20260507023521 | 16 | 1 | 6.4 | 12.9 | 0.00 | 0.00 | 0.00 | 21 | 1020.7 |
| 20260507023036 | 16 | 355 | 3.2 | 9.7 | 0.00 | 0.00 | 0.00 | 21 | 1020.7 |
| 20260507022525 | 16 | 317 | 3.2 | 11.3 | 0.00 | 0.00 | 0.00 | 21 | 1020.6 |
| 20260507022025 | 16 | 328 | 3.2 | 11.3 | 0.00 | 0.00 | 0.00 | 20 | 1020.6 |
| 20260507021536 | 17 | 13 | 3.2 | 11.3 | 0.00 | 0.00 | 0.00 | 20 | 1020.4 |
| 20260507021023 | 17 | 360 | 4.8 | 12.9 | 0.00 | 0.00 | 0.00 | 20 | 1020.3 |
| 20260507020521 | 17 | 335 | 4.8 | 12.9 | 0.00 | 0.00 | 0.00 | 20 | 1020.2 |
| 20260507020048 | 17 | 352 | 4.8 | 14.5 | 0.00 | 0.00 | 0.00 | 20 | 1020.2 |
| 20260507015522 | 17 | 360 | 8.0 | 19.3 | 0.00 | 0.00 | 0.00 | 19 | 1020.2 |
| 20260507015022 | 17 | 360 | 8.0 | 24.1 | 0.00 | 0.00 | 0.00 | 19 | 1020.0 |
| 20260507014549 | 17 | 346 | 11.3 | 24.1 | 0.00 | 0.00 | 0.00 | 19 | 1020.1 |
| 20260507014022 | 17 | 21 | 6.4 | 17.7 | 0.00 | 0.00 | 0.00 | 19 | 1020.1 |
| 20260507013521 | 17 | 1 | 8.0 | 17.7 | 0.00 | 0.00 | 0.00 | 19 | 1019.9 |
| 20260507013044 | 17 | 352 | 8.0 | 20.9 | 0.00 | 0.00 | 0.00 | 19 | 1019.9 |
| 20260507012521 | 18 | 12 | 8.0 | 20.9 | 0.00 | 0.00 | 0.00 | 19 | 1019.9 |
| 20260507012024 | 18 | 19 | 11.3 | 19.3 | 0.00 | 0.00 | 0.00 | 19 | 1019.9 |
| 20260507011538 | 18 | 30 | 9.7 | 16.1 | 0.00 | 0.00 | 0.00 | 19 | 1019.8 |
| 20260507011020 | 18 | 6 | 8.0 | 16.1 | 0.00 | 0.00 | 0.00 | 19 | 1019.8 |
| 20260507010521 | 18 | 27 | 11.3 | 22.5 | 0.00 | 0.00 | 0.00 | 19 | 1019.8 |
| 20260507010041 | 18 | 59 | 11.3 | 22.5 | 0.00 | 0.00 | 0.00 | 19 | 1019.7 |
| 20260507005523 | 18 | 32 | 9.7 | 17.7 | 0.00 | 0.00 | 0.00 | 19 | 1019.7 |
| 20260507005022 | 18 | 19 | 8.0 | 16.1 | 0.00 | 0.00 | 0.00 | 19 | 1019.7 |
| 20260507004543 | 18 | 328 | 6.4 | 20.9 | 0.00 | 0.00 | 0.00 | 20 | 1019.6 |
| 20260507004025 | 18 | 13 | 9.7 | 24.1 | 0.00 | 0.00 | 0.00 | 19 | 1019.5 |
| 20260507003523 | 19 | 47 | 14.5 | 25.7 | 0.00 | 0.00 | 0.00 | 19 | 1019.7 |
| 20260507003049 | 19 | 355 | 11.3 | 25.7 | 0.00 | 0.00 | 0.00 | 18 | 1019.5 |
| 20260507002521 | 19 | 27 | 9.7 | 20.9 | 0.00 | 0.00 | 0.00 | 19 | 1019.5 |
| 20260507002021 | 20 | 46 | 11.3 | 20.9 | 0.00 | 0.00 | 0.00 | 19 | 1019.4 |
| 20260507001541 | 20 | 25 | 8.0 | 20.9 | 0.00 | 0.00 | 0.00 | 19 | 1019.3 |
| 20260507001021 | 20 | 25 | 11.3 | 22.5 | 0.00 | 0.00 | 0.00 | 19 | 1019.2 |
| 20260507000521 | 20 | 10 | 12.9 | 22.5 | 0.00 | 0.00 | 0.00 | 18 | 1019.2 |
| 20260507000040 | 20 | 36 | 12.9 | 20.9 | 0.00 | 0.00 | 0.00 | 18 | 1019.1 |
| 20260506235521 | 20 | 1 | 8.0 | 25.7 | 0.00 | 0.00 | 0.00 | 19 | 1019.0 |
| 20260506235021 | 20 | 38 | 11.3 | 25.7 | 0.00 | 0.00 | 0.00 | 18 | 1018.9 |
| 20260506234536 | 20 | 18 | 16.1 | 29.0 | 0.00 | 0.00 | 0.00 | 18 | 1019.0 |
| 20260506234022 | 20 | 56 | 14.5 | 29.0 | 0.00 | 0.00 | 0.00 | 18 | 1018.9 |
| 20260506233522 | 20 | 4 | 19.3 | 29.0 | 0.00 | 0.00 | 0.00 | 18 | 1019.1 |
| 20260506233041 | 20 | 1 | 14.5 | 27.4 | 0.00 | 0.00 | 0.00 | 19 | 1019.0 |
| 20260506232521 | 20 | 26 | 12.9 | 27.4 | 0.00 | 0.00 | 0.00 | 18 | 1018.9 |
| 20260506232021 | 20 | 75 | 14.5 | 25.7 | 0.00 | 0.00 | 0.00 | 19 | 1019.0 |
| 20260506231541 | 20 | 25 | 12.9 | 25.7 | 0.00 | 0.00 | 0.00 | 20 | 1019.1 |
| 20260506231022 | 20 | 44 | 14.5 | 25.7 | 0.00 | 0.00 | 0.00 | 19 | 1019.0 |
| 20260506230521 | 20 | 39 | 14.5 | 25.7 | 0.00 | 0.00 | 0.00 | 19 | 1018.9 |
| 20260506230043 | 20 | 346 | 12.9 | 24.1 | 0.00 | 0.00 | 0.00 | 21 | 1018.9 |
| 20260506225524 | 20 | 39 | 9.7 | 24.1 | 0.00 | 0.00 | 0.00 | 21 | 1018.9 |
| 20260506225024 | 20 | 1 | 11.3 | 27.4 | 0.00 | 0.00 | 0.00 | 21 | 1019.0 |
| 20260506224536 | 20 | 17 | 16.1 | 27.4 | 0.00 | 0.00 | 0.00 | 20 | 1018.9 |
| 20260506224021 | 20 | 32 | 12.9 | 29.0 | 0.00 | 0.00 | 0.00 | 20 | 1018.8 |
| 20260506223523 | 20 | 13 | 16.1 | 29.0 | 0.00 | 0.00 | 0.00 | 20 | 1019.0 |
| 20260506223047 | 20 | 32 | 14.5 | 25.7 | 0.00 | 0.00 | 0.00 | 21 | 1019.1 |
| 20260506222521 | 20 | 25 | 16.1 | 25.7 | 0.00 | 0.00 | 0.00 | 21 | 1018.9 |
| 20260506222025 | 20 | 56 | 12.9 | 32.2 | 0.00 | 0.00 | 0.00 | 21 | 1019.1 |
| 20260506221541 | 20 | 6 | 19.3 | 32.2 | 0.00 | 0.00 | 0.00 | 20 | 1019.2 |
| 20260506221028 | 20 | 45 | 16.1 | 32.2 | 0.00 | 0.00 | 0.00 | 19 | 1019.0 |
| 20260506220524 | 20 | 50 | 22.5 | 32.2 | 0.00 | 0.00 | 0.00 | 19 | 1019.2 |
| 20260506220044 | 20 | 42 | 17.7 | 32.2 | 0.00 | 0.00 | 0.00 | 20 | 1019.2 |
| 20260506215525 | 20 | 23 | 22.5 | 35.4 | 0.00 | 0.00 | 0.00 | 19 | 1019.1 |
| 20260506215025 | 20 | 49 | 14.5 | 35.4 | 0.00 | 0.00 | 0.00 | 21 | 1019.2 |
| 20260506214537 | 20 | 9 | 12.9 | 35.4 | 0.00 | 0.00 | 0.00 | 22 | 1019.1 |
| 20260506214021 | 20 | 36 | 16.1 | 30.6 | 0.00 | 0.00 | 0.00 | 22 | 1019.2 |
| 20260506213520 | 20 | 44 | 17.7 | 30.6 | 0.00 | 0.00 | 0.00 | 23 | 1019.2 |
| 20260506213037 | 20 | 33 | 11.3 | 30.6 | 0.00 | 0.00 | 0.00 | 24 | 1019.2 |
| 20260506212521 | 21 | 22 | 11.3 | 30.6 | 0.00 | 0.00 | 0.00 | 22 | 1019.3 |
| 20260506212025 | 20 | 29 | 14.5 | 29.0 | 0.00 | 0.00 | 0.00 | 24 | 1019.3 |
| 20260506211536 | 20 | 20 | 14.5 | 29.0 | 0.00 | 0.00 | 0.00 | 23 | 1019.2 |
| 20260506211023 | 20 | 56 | 11.3 | 33.8 | 0.00 | 0.00 | 0.00 | 24 | 1019.1 |
| 20260506210524 | 20 | 52 | 14.5 | 33.8 | 0.00 | 0.00 | 0.00 | 22 | 1019.2 |
| 20260506210045 | 20 | 37 | 14.5 | 37.0 | 0.00 | 0.00 | 0.00 | 22 | 1019.1 |
| 20260506205526 | 20 | 1 | 16.1 | 37.0 | 0.00 | 0.00 | 0.00 | 24 | 1019.2 |
| 20260506205026 | 20 | 41 | 19.3 | 37.0 | 0.00 | 0.00 | 0.00 | 23 | 1019.3 |
| 20260506204547 | 20 | 24 | 17.7 | 32.2 | 0.00 | 0.00 | 0.00 | 22 | 1019.3 |
| 20260506204021 | 20 | 25 | 19.3 | 43.5 | 0.00 | 0.00 | 0.00 | 22 | 1019.3 |
| 20260506203521 | 20 | 360 | 19.3 | 43.5 | 0.00 | 0.00 | 0.00 | 22 | 1019.2 |
| 20260506203037 | 20 | 27 | 17.7 | 32.2 | 0.00 | 0.00 | 0.00 | 25 | 1018.9 |
| 20260506202523 | 20 | 21 | 19.3 | 32.2 | 0.00 | 0.00 | 0.00 | 25 | 1019.1 |
| 20260506202024 | 20 | 39 | 11.3 | 32.2 | 0.00 | 0.00 | 0.00 | 23 | 1019.0 |
| 20260506201536 | 20 | 27 | 19.3 | 32.2 | 0.00 | 0.00 | 0.00 | 23 | 1019.1 |
| 20260506201021 | 20 | 49 | 14.5 | 29.0 | 0.00 | 0.00 | 0.00 | 24 | 1019.0 |
| 20260506200524 | 20 | 17 | 17.7 | 32.2 | 0.00 | 0.00 | 0.00 | 23 | 1019.0 |
| 20260506200037 | 20 | 14 | 11.3 | 35.4 | 0.00 | 0.00 | 0.00 | 23 | 1019.1 |
| 20260506195520 | 20 | 53 | 16.1 | 35.4 | 0.00 | 0.00 | 0.00 | 21 | 1019.2 |
| 20260506195020 | 20 | 356 | 16.1 | 35.4 | 0.00 | 0.00 | 0.00 | 21 | 1019.3 |
| 20260506194540 | 20 | 48 | 16.1 | 35.4 | 0.00 | 0.00 | 0.00 | 25 | 1019.0 |
| 20260506194024 | 19 | 58 | 16.1 | 35.4 | 0.00 | 0.00 | 0.00 | 25 | 1019.1 |
| 20260506193524 | 19 | 19 | 12.9 | 33.8 | 0.00 | 0.00 | 0.00 | 23 | 1019.1 |
| 20260506193041 | 20 | 1 | 16.1 | 38.6 | 0.00 | 0.00 | 0.00 | 22 | 1019.1 |
| 20260506192526 | 19 | 56 | 16.1 | 38.6 | 0.00 | 0.00 | 0.00 | 25 | 1019.1 |
| 20260506192024 | 19 | 7 | 14.5 | 33.8 | 0.00 | 0.00 | 0.00 | 26 | 1019.1 |
| 20260506191537 | 19 | 32 | 17.7 | 33.8 | 0.00 | 0.00 | 0.00 | 25 | 1019.0 |
| 20260506191024 | 19 | 32 | 16.1 | 32.2 | 0.00 | 0.00 | 0.00 | 24 | 1019.0 |
| 20260506190520 | 19 | 1 | 14.5 | 33.8 | 0.00 | 0.00 | 0.00 | 26 | 1018.9 |
| 20260506190037 | 18 | 13 | 17.7 | 33.8 | 0.00 | 0.00 | 0.00 | 26 | 1019.2 |
| 20260506185520 | 19 | 37 | 16.1 | 29.0 | 0.00 | 0.00 | 0.00 | 27 | 1019.2 |
| 20260506185023 | 18 | 51 | 12.9 | 29.0 | 0.00 | 0.00 | 0.00 | 25 | 1019.1 |
| 20260506184543 | 18 | 338 | 6.4 | 32.2 | 0.00 | 0.00 | 0.00 | 26 | 1019.1 |
| 20260506184023 | 18 | 13 | 12.9 | 32.2 | 0.00 | 0.00 | 0.00 | 26 | 1019.3 |
| 20260506183524 | 18 | 360 | 9.7 | 27.4 | 0.00 | 0.00 | 0.00 | 28 | 1019.3 |
| 20260506183044 | 18 | 1 | 17.7 | 32.2 | 0.00 | 0.00 | 0.00 | 27 | 1019.3 |
| 20260506182523 | 18 | 2 | 11.3 | 33.8 | 0.00 | 0.00 | 0.00 | 29 | 1019.2 |
| 20260506182022 | 18 | 25 | 19.3 | 33.8 | 0.00 | 0.00 | 0.00 | 29 | 1019.2 |
| 20260506181543 | 18 | 23 | 20.9 | 33.8 | 0.00 | 0.00 | 0.00 | 29 | 1019.1 |
| 20260506181021 | 19 | 37 | 22.5 | 37.0 | 0.00 | 0.00 | 0.00 | 29 | 1018.9 |
| 20260506180521 | 18 | 50 | 20.9 | 37.0 | 0.00 | 0.00 | 0.00 | 30 | 1019.1 |
| 20260506180050 | 18 | 47 | 20.9 | 37.0 | 0.00 | 0.00 | 0.00 | 29 | 1019.2 |
| 20260506175520 | 18 | 19 | 17.7 | 30.6 | 0.00 | 0.00 | 0.00 | 28 | 1019.3 |
| 20260506175023 | 18 | 30 | 16.1 | 32.2 | 0.00 | 0.00 | 0.00 | 28 | 1019.3 |
| 20260506174545 | 18 | 56 | 19.3 | 32.2 | 0.00 | 0.00 | 0.00 | 29 | 1019.3 |
| 20260506174021 | 17 | 53 | 11.3 | 32.2 | 0.00 | 0.00 | 0.00 | 30 | 1019.3 |
| 20260506173524 | 17 | 19 | 16.1 | 32.2 | 0.00 | 0.00 | 0.00 | 31 | 1019.3 |
| 20260506173038 | 16 | 60 | 12.9 | 22.5 | 0.00 | 0.00 | 0.00 | 31 | 1019.2 |
| 20260506172520 | 16 | 48 | 4.8 | 20.9 | 0.00 | 0.00 | 0.00 | 34 | 1019.2 |
| 20260506172024 | 16 | 17 | 9.7 | 20.9 | 0.00 | 0.00 | 0.00 | 35 | 1019.1 |
| 20260506171549 | 16 | 44 | 8.0 | 25.7 | 0.00 | 0.00 | 0.00 | 36 | 1018.9 |
| 20260506171023 | 16 | 297 | 4.8 | 25.7 | 0.00 | 0.00 | 0.00 | 36 | 1018.9 |
| 20260506170522 | 15 | 320 | 12.9 | 25.7 | 0.00 | 0.00 | 0.00 | 37 | 1019.1 |
| 20260506170056 | 15 | 257 | 6.4 | 19.3 | 0.00 | 0.00 | 0.00 | 37 | 1019.0 |
| 20260506165521 | 15 | 269 | 6.4 | 19.3 | 0.00 | 0.00 | 0.00 | 37 | 1019.1 |
| 20260506165021 | 15 | 274 | 4.8 | 17.7 | 0.00 | 0.00 | 0.00 | 38 | 1019.1 |
| 20260506164537 | 15 | 276 | 6.4 | 17.7 | 0.00 | 0.00 | 0.00 | 37 | 1019.1 |
| 20260506164022 | 15 | 360 | 6.4 | 16.1 | 0.00 | 0.00 | 0.00 | 36 | 1019.1 |
| 20260506163524 | 16 | 274 | 4.8 | 17.7 | 0.00 | 0.00 | 0.00 | 37 | 1019.0 |
| 20260506163055 | 15 | 283 | 6.4 | 17.7 | 0.00 | 0.00 | 0.00 | 39 | 1019.1 |
| 20260506162527 | 15 | 266 | 8.0 | 16.1 | 0.00 | 0.00 | 0.00 | 37 | 1019.1 |
| 20260506162026 | 15 | 360 | 6.4 | 24.1 | 0.00 | 0.00 | 0.00 | 37 | 1019.1 |
| 20260506161544 | 15 | 273 | 11.3 | 24.1 | 0.00 | 0.00 | 0.00 | 37 | 1019.0 |
| 20260506161023 | 14 | 352 | 8.0 | 17.7 | 0.00 | 0.00 | 0.00 | 38 | 1018.9 |
| 20260506160523 | 14 | 265 | 6.4 | 24.1 | 0.00 | 0.00 | 0.00 | 39 | 1018.9 |
| 20260506160045 | 13 | 314 | 8.0 | 24.1 | 0.00 | 0.00 | 0.00 | 38 | 1018.9 |
| 20260506155523 | 13 | 316 | 9.7 | 25.7 | 0.00 | 0.00 | 0.00 | 39 | 1019.0 |
| 20260506155021 | 13 | 327 | 9.7 | 25.7 | 0.00 | 0.00 | 0.00 | 39 | 1019.0 |
| 20260506154605 | 13 | 320 | 9.7 | 24.1 | 0.00 | 0.00 | 0.00 | 39 | 1018.9 |
| 20260506154023 | 13 | 156 | 6.4 | 24.1 | 0.00 | 0.00 | 0.00 | 41 | 1019.0 |
| 20260506153521 | 13 | 341 | 8.0 | 24.1 | 0.00 | 0.00 | 0.00 | 40 | 1019.1 |
| 20260506153043 | 12 | 307 | 11.3 | 24.1 | 0.00 | 0.00 | 0.00 | 40 | 1018.9 |
| 20260506152524 | 12 | 325 | 11.3 | 20.9 | 0.00 | 0.00 | 0.00 | 41 | 1019.0 |
| 20260506152024 | 12 | 278 | 8.0 | 22.5 | 0.00 | 0.00 | 0.00 | 41 | 1019.0 |
| 20260506151536 | 12 | 279 | 11.3 | 22.5 | 0.00 | 0.00 | 0.00 | 41 | 1019.1 |
| 20260506151024 | 12 | 276 | 9.7 | 22.5 | 0.00 | 0.00 | 0.00 | 41 | 1019.1 |
| 20260506150524 | 12 | 275 | 8.0 | 25.7 | 0.00 | 0.00 | 0.00 | 42 | 1019.3 |
| 20260506150044 | 11 | 270 | 12.9 | 25.7 | 0.00 | 0.00 | 0.00 | 43 | 1019.2 |
| 20260506145527 | 11 | 134 | 1.6 | 8.0 | 0.00 | 0.00 | 0.00 | 45 | 1019.3 |
| 20260506145024 | 10 | 78 | 1.6 | 6.4 | 0.00 | 0.00 | 0.00 | 45 | 1019.3 |
| 20260506144545 | 9 | 78 | 1.6 | 6.4 | 0.00 | 0.00 | 0.00 | 46 | 1019.4 |
| 20260506144023 | 8 | 81 | 3.2 | 6.4 | 0.00 | 0.00 | 0.00 | 47 | 1019.2 |
| 20260506143527 | 8 | 73 | 3.2 | 6.4 | 0.00 | 0.00 | 0.00 | 49 | 1019.4 |
| 20260506143053 | 7 | 0 | 0.0 | 8.0 | 0.00 | 0.00 | 0.00 | 50 | 1019.4 |
| 20260506142522 | 7 | 57 | 3.2 | 8.0 | 0.00 | 0.00 | 0.00 | 51 | 1019.4 |
| 20260506142023 | 6 | 57 | 4.8 | 8.0 | 0.00 | 0.00 | 0.00 | 51 | 1019.5 |
| 20260506141538 | 6 | 48 | 4.8 | 9.7 | 0.00 | 0.00 | 0.00 | 52 | 1019.4 |
| 20260506141024 | 5 | 50 | 4.8 | 9.7 | 0.00 | 0.00 | 0.00 | 54 | 1019.4 |
| 20260506140525 | 5 | 48 | 4.8 | 11.3 | 0.00 | 0.00 | 0.00 | 55 | 1019.4 |
| 20260506140045 | 4 | 47 | 6.4 | 11.3 | 0.00 | 0.00 | 0.00 | 56 | 1019.3 |
| 20260506135524 | 3 | 41 | 8.0 | 11.3 | 0.00 | 0.00 | 0.00 | 59 | 1019.0 |
| 20260506135023 | 2 | 43 | 6.4 | 8.0 | 0.00 | 0.00 | 0.00 | 60 | 1018.9 |
| 20260506134545 | 2 | 39 | 4.8 | 8.0 | 0.00 | 0.00 | 0.00 | 60 | 1018.9 |
| 20260506134025 | 2 | 32 | 1.6 | 4.8 | 0.00 | 0.00 | 0.00 | 61 | 1018.7 |
| 20260506133523 | 2 | 32 | 3.2 | 4.8 | 0.00 | 0.00 | 0.00 | 61 | 1018.8 |
| 20260506133042 | 1 | 31 | 0.0 | 6.4 | 0.00 | 0.00 | 0.00 | 65 | 1018.8 |
| 20260506132524 | 1 | 31 | 0.0 | 8.0 | 0.00 | 0.00 | 0.00 | 66 | 1018.8 |
| 20260506132021 | 0 | 31 | 4.8 | 8.0 | 0.00 | 0.00 | 0.00 | 66 | 1018.7 |
| 20260506131536 | 0 | 30 | 3.2 | 6.4 | 0.00 | 0.00 | 0.00 | 65 | 1018.6 |
| 20260506131023 | 0 | 30 | 1.6 | 11.3 | 0.00 | 0.00 | 0.00 | 65 | 1018.5 |
| 20260506130521 | 0 | 18 | 3.2 | 11.3 | 0.00 | 0.00 | 0.00 | 69 | 1018.4 |
| 20260506130036 | -1 | 26 | 8.0 | 11.3 | 0.00 | 0.00 | 0.00 | 70 | 1018.4 |
| 20260506125521 | -1 | 44 | 4.8 | 8.0 | 0.00 | 0.00 | 0.00 | 70 | 1018.2 |
| 20260506125020 | -1 | 58 | 3.2 | 8.0 | 0.00 | 0.00 | 0.00 | 70 | 1018.1 |
| 20260506124536 | -2 | 58 | 4.8 | 8.0 | 0.00 | 0.00 | 0.00 | 70 | 1018.1 |
| 20260506124023 | -2 | 60 | 0.0 | 4.8 | 0.00 | 0.00 | 0.00 | 69 | 1018.0 |
| 20260506123521 | -1 | 0 | 0.0 | 4.8 | 0.00 | 0.00 | 0.00 | 69 | 1018.0 |
| 20260506123044 | -1 | 60 | 3.2 | 6.4 | 0.00 | 0.00 | 0.00 | 68 | 1018.0 |
| 20260506122523 | -1 | 60 | 3.2 | 6.4 | 0.00 | 0.00 | 0.00 | 68 | 1018.0 |
| 20260506122022 | -1 | 41 | 1.6 | 4.8 | 0.00 | 0.00 | 0.00 | 67 | 1017.8 |
| 20260506121544 | -1 | 41 | 1.6 | 4.8 | 0.00 | 0.00 | 0.00 | 68 | 1017.8 |
| 20260506121024 | -1 | 41 | 3.2 | 4.8 | 0.00 | 0.00 | 0.00 | 68 | 1017.7 |
| 20260506120524 | -1 | 41 | 0.0 | 3.2 | 0.00 | 0.00 | 0.00 | 68 | 1017.7 |
| 20260506120052 | -1 | 0 | 0.0 | 4.8 | 0.00 | 0.00 | 0.00 | 68 | 1017.6 |
| 20260506115520 | -1 | 0 | 0.0 | 4.8 | 0.00 | 0.00 | 0.00 | 68 | 1017.5 |
| 20260506115021 | 0 | 41 | 1.6 | 3.2 | 0.00 | 0.00 | 0.00 | 68 | 1017.5 |
| 20260506114543 | 0 | 41 | 1.6 | 4.8 | 0.00 | 0.00 | 0.00 | 68 | 1017.4 |
| 20260506114021 | 0 | 41 | 1.6 | 4.8 | 0.00 | 0.00 | 0.00 | 68 | 1017.3 |
| 20260506113521 | 0 | 41 | 0.0 | 4.8 | 0.00 | 0.00 | 0.00 | 68 | 1017.3 |
| 20260506113044 | 0 | 41 | 3.2 | 4.8 | 0.00 | 0.00 | 0.00 | 68 | 1017.1 |
| 20260506112526 | 0 | 42 | 0.0 | 4.8 | 0.00 | 0.00 | 0.00 | 68 | 1017.2 |
| 20260506112028 | 0 | 42 | 1.6 | 4.8 | 0.00 | 0.00 | 0.00 | 67 | 1017.0 |
| 20260506111543 | 0 | 42 | 3.2 | 4.8 | 0.00 | 0.00 | 0.00 | 66 | 1017.0 |
| 20260506111023 | 0 | 42 | 1.6 | 4.8 | 0.00 | 0.00 | 0.00 | 66 | 1017.0 |
| 20260506110523 | 0 | 42 | 1.6 | 4.8 | 0.00 | 0.00 | 0.00 | 67 | 1017.0 |
| 20260506110044 | 0 | 0 | 0.0 | 4.8 | 0.00 | 0.00 | 0.00 | 67 | 1016.8 |
| 20260506105524 | 0 | 42 | 1.6 | 4.8 | 0.00 | 0.00 | 0.00 | 66 | 1016.8 |
| 20260506105021 | 0 | 42 | 1.6 | 4.8 | 0.00 | 0.00 | 0.00 | 65 | 1016.9 |
| 20260506104535 | 0 | 42 | 1.6 | 6.4 | 0.00 | 0.00 | 0.00 | 64 | 1016.8 |
| 20260506104021 | 0 | 42 | 1.6 | 6.4 | 0.00 | 0.00 | 0.00 | 64 | 1016.6 |
| 20260506103521 | 0 | 42 | 1.6 | 6.4 | 0.00 | 0.00 | 0.00 | 64 | 1016.8 |
| 20260506103035 | 1 | 42 | 0.0 | 6.4 | 0.00 | 0.00 | 0.00 | 65 | 1016.8 |
| 20260506102526 | 1 | 42 | 0.0 | 6.4 | 0.00 | 0.00 | 0.00 | 65 | 1016.8 |
| 20260506102024 | 0 | 46 | 3.2 | 6.4 | 0.00 | 0.00 | 0.00 | 65 | 1016.8 |
| 20260506101536 | 0 | 49 | 4.8 | 6.4 | 0.00 | 0.00 | 0.00 | 64 | 1016.8 |
| 20260506101023 | 1 | 50 | 0.0 | 3.2 | 0.00 | 0.00 | 0.00 | 64 | 1016.7 |
| 20260506100523 | 1 | 0 | 0.0 | 4.8 | 0.00 | 0.00 | 0.00 | 62 | 1016.7 |
| 20260506100046 | 1 | 0 | 1.6 | 4.8 | 0.00 | 0.00 | 0.00 | 62 | 1016.6 |
| 20260506095523 | 1 | 50 | 0.0 | 3.2 | 0.00 | 0.00 | 0.00 | 61 | 1016.7 |
| 20260506095023 | 2 | 0 | 0.0 | 4.8 | 0.00 | 0.00 | 0.00 | 62 | 1016.6 |
| 20260506094551 | 2 | 0 | 1.6 | 4.8 | 0.00 | 0.00 | 0.00 | 60 | 1016.6 |
| 20260506094023 | 2 | 50 | 1.6 | 4.8 | 0.00 | 0.00 | 0.00 | 60 | 1016.6 |
| 20260506093523 | 2 | 50 | 1.6 | 4.8 | 0.00 | 0.00 | 0.00 | 60 | 1016.6 |
| 20260506093037 | 2 | 50 | 1.6 | 4.8 | 0.00 | 0.00 | 0.00 | 59 | 1016.6 |
| 20260506092524 | 3 | 50 | 0.0 | 3.2 | 0.00 | 0.00 | 0.00 | 59 | 1016.5 |
| 20260506092024 | 3 | 50 | 0.0 | 4.8 | 0.00 | 0.00 | 0.00 | 59 | 1016.4 |
| 20260506091537 | 3 | 0 | 1.6 | 4.8 | 0.00 | 0.00 | 0.00 | 57 | 1016.4 |
| 20260506091024 | 3 | 50 | 1.6 | 4.8 | 0.00 | 0.00 | 0.00 | 57 | 1016.3 |
| 20260506090523 | 4 | 50 | 3.2 | 6.4 | 0.00 | 0.00 | 0.00 | 56 | 1016.2 |
| 20260506090036 | 5 | 50 | 3.2 | 6.4 | 0.00 | 0.00 | 0.00 | 55 | 1016.1 |
| 20260506085523 | 5 | 50 | 3.2 | 6.4 | 0.00 | 0.00 | 0.00 | 53 | 1016.0 |
| 20260506085023 | 5 | 50 | 3.2 | 6.4 | 0.00 | 0.00 | 0.00 | 51 | 1015.9 |
| 20260506084546 | 6 | 50 | 1.6 | 4.8 | 0.00 | 0.00 | 0.00 | 52 | 1015.8 |
| 20260506084023 | 6 | 0 | 1.6 | 6.4 | 0.00 | 0.00 | 0.00 | 52 | 1015.9 |
| 20260506083523 | 6 | 50 | 1.6 | 6.4 | 0.00 | 0.00 | 0.00 | 50 | 1015.9 |
| 20260506083041 | 6 | 50 | 3.2 | 6.4 | 0.00 | 0.00 | 0.00 | 49 | 1015.9 |
| 20260506082523 | 7 | 50 | 3.2 | 4.8 | 0.00 | 0.00 | 0.00 | 48 | 1015.9 |
| 20260506082022 | 7 | 0 | 0.0 | 3.2 | 0.00 | 0.00 | 0.00 | 47 | 1015.9 |
| 20260506081538 | 7 | 0 | 0.0 | 3.2 | 0.00 | 0.00 | 0.00 | 47 | 1015.9 |
| 20260506081024 | 7 | 0 | 0.0 | 4.8 | 0.00 | 0.00 | 0.00 | 47 | 1015.9 |
| 20260506080524 | 7 | 0 | 1.6 | 6.4 | 0.00 | 0.00 | 0.00 | 48 | 1015.9 |
| 20260506073524 | 8 | 0 | 0.0 | 0.0 | 0.00 | 0.00 | 0.00 | 46 | 1015.9 |
| 20260506073046 | 8 | 0 | 0.0 | 0.0 | 0.00 | 0.00 | 0.00 | 48 | 1015.8 |
| 20260506072523 | 8 | 0 | 0.0 | 0.0 | 0.00 | 0.00 | 0.00 | 45 | 1015.8 |
| 20260506072022 | 8 | 0 | 0.0 | 0.0 | 0.00 | 0.00 | 0.00 | 43 | 1015.8 |
| 20260506071540 | 8 | 0 | 0.0 | 0.0 | 0.00 | 0.00 | 0.00 | 43 | 1015.7 |
| 20260506071022 | 8 | 0 | 0.0 | 0.0 | 0.00 | 0.00 | 0.00 | 46 | 1015.7 |
| 20260506070524 | 8 | 0 | 0.0 | 0.0 | 0.00 | 0.00 | 0.00 | 43 | 1015.6 |
| 20260506062020 | 10 | 325 | 3.2 | 9.7 | 0.00 | 0.00 | 0.00 | 36 | 1015.5 |
| 20260506061543 | 10 | 324 | 4.8 | 11.3 | 0.00 | 0.00 | 0.00 | 36 | 1015.6 |
| 20260506061020 | 10 | 286 | 4.8 | 11.3 | 0.00 | 0.00 | 0.00 | 36 | 1015.5 |
| 20260506060521 | 10 | 339 | 4.8 | 11.3 | 0.00 | 0.00 | 0.00 | 36 | 1015.5 |
| 20260506051024 | 10 | 254 | 1.6 | 6.4 | 0.00 | 0.00 | 0.00 | 37 | 1015.3 |
| 20260506050523 | 11 | 193 | 1.6 | 9.7 | 0.00 | 0.00 | 0.00 | 36 | 1015.3 |
| 20260506045023 | 11 | 288 | 1.6 | 9.7 | 0.00 | 0.00 | 0.00 | 36 | 1015.1 |
| 20260506044546 | 11 | 0 | 1.6 | 8.0 | 0.00 | 0.00 | 0.00 | 36 | 1015.1 |
| 20260506044021 | 11 | 311 | 3.2 | 8.0 | 0.00 | 0.00 | 0.00 | 35 | 1015.1 |
| 20260506043520 | 11 | 224 | 1.6 | 11.3 | 0.00 | 0.00 | 0.00 | 35 | 1015.0 |
| 20260506043039 | 11 | 283 | 4.8 | 11.3 | 0.00 | 0.00 | 0.00 | 36 | 1015.0 |
| 20260506042523 | 11 | 306 | 4.8 | 8.0 | 0.00 | 0.00 | 0.00 | 34 | 1014.9 |
| 20260506042023 | 11 | 309 | 3.2 | 8.0 | 0.00 | 0.00 | 0.00 | 35 | 1014.9 |
| 20260506041536 | 11 | 285 | 1.6 | 8.0 | 0.00 | 0.00 | 0.00 | 34 | 1014.8 |
| 20260506041023 | 12 | 285 | 3.2 | 11.3 | 0.00 | 0.00 | 0.00 | 34 | 1014.6 |
| 20260506040523 | 12 | 335 | 4.8 | 11.3 | 0.00 | 0.00 | 0.00 | 34 | 1014.5 |
| 20260506040054 | 12 | 301 | 1.6 | 12.9 | 0.00 | 0.00 | 0.00 | 34 | 1014.5 |
| 20260506035523 | 12 | 302 | 3.2 | 12.9 | 0.00 | 0.00 | 0.00 | 34 | 1014.3 |
| 20260506035024 | 12 | 335 | 3.2 | 12.9 | 0.00 | 0.00 | 0.00 | 33 | 1014.1 |
| 20260506034548 | 12 | 359 | 4.8 | 12.9 | 0.00 | 0.00 | 0.00 | 33 | 1014.0 |
| 20260506034024 | 12 | 322 | 3.2 | 12.9 | 0.00 | 0.00 | 0.00 | 33 | 1013.8 |
| 20260506033523 | 12 | 349 | 4.8 | 11.3 | 0.00 | 0.00 | 0.00 | 33 | 1013.7 |
| 20260506033042 | 12 | 313 | 4.8 | 11.3 | 0.00 | 0.00 | 0.00 | 33 | 1013.5 |
| 20260506032523 | 12 | 273 | 3.2 | 12.9 | 0.00 | 0.00 | 0.00 | 33 | 1013.5 |
| 20260506032023 | 12 | 305 | 3.2 | 12.9 | 0.00 | 0.00 | 0.00 | 33 | 1013.4 |
| 20260506031552 | 12 | 291 | 4.8 | 12.9 | 0.00 | 0.00 | 0.00 | 33 | 1013.3 |
| 20260506031025 | 12 | 290 | 4.8 | 12.9 | 0.00 | 0.00 | 0.00 | 33 | 1013.1 |